Retour au catalogue

COSMOS 2449

GLONASS

ActifNavigationMEO
NORAD 33467·PAYLOAD·🇷🇺 Russia

Lancé Dec 25, 2008 depuis Baikonur Cosmodrome

Loading…

Prochains Passages (prochaines 24 heures)

TLE

FraisSource: Space-Track

Époque: Sep 10, 2026, 07:02 UTC

1 33467U 08067B   26253.29307247  .00000011  00000-0  00000-0 0  9998
2 33467  64.8656  66.3346 0032943 235.4620 124.2631  2.13096687137777

Suivez COSMOS 2449 en temps réel avec AllMySat

Download on the App Store